Overview Statistics Trail Chart Weather Telemetry Raw packets
 

This is the latest recevied weather packets stored in our database for station/object KD2SIG. If no packets are shown the sender has not sent any weather packets the latest 10 day(s).

<< 108 109 110 111 112 113 114 >>
Time Temp. Humidity Pressure Rain* Wind** Luminosity Snow
1787778561 25.56° C 67% 1016.9 hPa 0 mm - 275 W/m² -
1787778257 25.56° C 67% 1016.9 hPa 0 mm - 273 W/m² -
1787777956 25° C 69% 1017.2 hPa 0 mm - 236 W/m² -
1787777652 25° C 65% 1017.1 hPa 0 mm - 229 W/m² -
1787777348 25.56° C 66% 1016.9 hPa 0 mm - 295 W/m² -
1787777047 26.11° C 65% 1017 hPa 0 mm - 121 W/m² -
1787776746 26.11° C 66% 1017.1 hPa 0 mm - 334 W/m² -
1787776445 25.56° C 66% 1017.2 hPa 0 mm - 400 W/m² -
1787776148 26.11° C 66% 1017.4 hPa 0 mm - 426 W/m² -
1787775838 25.56° C 65% 1017.3 hPa 0 mm - 498 W/m² -
1787775533 25.56° C 69% 1017.3 hPa 0 mm - 284 W/m² -
1787775231 25.56° C 65% 1017.5 hPa 0 mm - 213 W/m² -
1787774925 26.11° C 63% 1017.3 hPa 0 mm - 507 W/m² -
1787774625 26.11° C 62% 1017.3 hPa 0 mm - 516 W/m² -
1787774324 26.11° C 63% 1017.3 hPa 0 mm - 518 W/m² -
1787774019 26.11° C 62% 1017.2 hPa 0 mm - 513 W/m² -
1787773717 25.56° C 64% 1017.4 hPa 0 mm - 558 W/m² -
1787773413 25.56° C 66% 1017.6 hPa 0 mm - 578 W/m² -
1787773113 25° C 67% 1017.4 hPa 0 mm - 576 W/m² -
1787772809 25.56° C 65% 1017.5 hPa 0 mm - 173 W/m² -
1787772507 25.56° C 67% 1017.6 hPa 0 mm - 598 W/m² -
1787772207 25.56° C 66% 1017.6 hPa 0 mm - 392 W/m² -
1787771901 25° C 63% 1017.8 hPa 0 mm - 626 W/m² -
1787771601 25.56° C 63% 1017.6 hPa 0 mm - 196 W/m² -
1787771295 25.56° C 62% 1017.4 hPa 0 mm - 622 W/m² -

* Rain latest hour (hover to see other rain measurements)
** Current wind speed in m/s (hover to see current wind gust speed)